Regional Weather Roundup
Issued by NWS Cleveland, OH

Home | Current Version | Previous Version | Text Only | Print | Product List | Glossary Off
Versions: 1 2 3 4 5 6 7 8 9 10 11 12 13 14 15 16 17 18 19 20 21 22 23 24 25 26 27 28 29 30 31 32 33 34 35 36 37 38 39 40 41 42 43 44 45 46 47 48 49 50

000
ASUS41 KCLE 301300
RWRCLE
OHIO REGIONAL WEATHER ROUNDUP
NATIONAL WEATHER SERVICE WILMINGTON, OH
900 AM EDT TUE JUN 30 2015

NOTE: "FAIR" INDICATES FEW OR NO CLOUDS BELOW 12,000 FEET WITH NO
SIGNIFICANT WEATHER AND/OR OBSTRUCTIONS TO VISIBILITY.

OHZ001>008-015>018-024>027-034-035-043-044-301400-
   NORTHWEST OHIO

CITY           SKY/WX    TMP DP  RH WIND       PRES   REMARKS
DEFIANCE       CLOUDY    65  61  87 S3        29.84R
FINDLAY        CLOUDY    64  61  90 S8        29.84R
TOLEDO EXPRESS PTSUNNY   65  59  81 SW6       29.83R
TOLEDO EXEC    PTSUNNY   66  59  78 SW7       29.84R
LIMA           CLOUDY    64  62  93 S6        29.85R FOG
$$

OHZ009>014-019>023-028>033-038-089-301400-
   NORTHEAST OHIO

CITY           SKY/WX    TMP DP  RH WIND       PRES   REMARKS
CLE-HOPKINS    CLOUDY    64  60  87 SW7       29.85R
CLE-LAKEFRONT  CLOUDY    66  61  84 SW7       29.82R
CUY CO. ARPT   CLOUDY    66  63  88 SW12      29.83S
LORAIN-ELYRIA  MOSUNNY   65  60  84 W13       29.84S
ASHTABULA      CLOUDY    64  61  90 SW8       29.84R
AKRON-CANTON   PTSUNNY   66  59  78 SW9       29.85S
WOOSTER        NOT AVBL
MANSFIELD      PTSUNNY   64  60  87 S8        29.86R
YOUNGSTOWN     CLOUDY    65  62  90 SW9       29.85R FOG
$$

OHZ042-051>053-060>062-070>072-077>081-301400-
  SOUTHWEST OHIO

CITY           SKY/WX    TMP DP  RH WIND       PRES   REMARKS
CINC-COVINGTON MOSUNNY   68  65  90 S6        29.89R
CINC-LUNKEN    MOSUNNY   70  66  87 SW9       29.89R
HAMILTON       MOSUNNY   69  66  90 VRB3      29.89R
DAYTON         NOT AVBL
WRIGHT-PAT AFB NOT AVBL
DAYTON GENERAL CLOUDY    66  65  96 SW7       29.88R FOG
WILMINGTON     CLOUDY    67  64  90 SW9       29.88S FOG
$$

OHZ036-037-039>041-045>050-054>059-063>069-073>076-082>088-301400-
  CENTRAL AND SOUTHEAST OHIO

CITY           SKY/WX    TMP DP  RH WIND       PRES   REMARKS
COLUMBUS       CLOUDY    67  66  97 SW9       29.86R FOG
OSU AIRPORT    LGT RAIN  67  65  93 SW7       29.86S VSB 1
BOLTON FIELD   CLOUDY    66  66 100 SW12      29.87S FOG
RICKENBACK AFB NOT AVBL
NEWARK         CLOUDY    67  65  93 SW6       29.87R FOG
MARION         CLOUDY    63  61  93 S7        29.87S FOG
LANCASTER      CLOUDY    69  65  86 SW8       29.88R
ZANESVILLE     CLOUDY    67  64  90 SW8       29.87S FOG
NEW PHILLY     CLOUDY    66  63  90 SW5       29.87S
$$



USA.gov is the U.S. government's official web portal to all federal, state and local government web resources and services.